Hourly Data Report for June 13, 2021

FISHER BRANCH (AUT)
MANITOBA
Current Station Operator: ECCC - MSC

51°05'00.100" N
97°33'16.200" W
253.00 m
50309J6
71442
WSZ

Download Data

Hourly Data (June 2021)
Hourly Data Report for June 13, 2021
TIME
LST
Temp Definition
°C
Dew Point Definition
°C
Rel Hum Definition
%
Precip. Amount Definition
mm

Wind Dir Definition
10's deg

Wind Spd Definition
km/h
Visibility Definition
km
Stn Press Definition
kPa
Hmdx Definition


Wind Chill Definition


Weather Definition


00:00 16.8 9.6 63 0.0 23 8   98.13     LegendNANA
01:00 17.6 10.7 64 0.0 25 20   98.26     LegendNANA
02:00 17.3 10.7 65 0.0 23 16   98.24     LegendNANA
03:00 16.5 10.7 68 0.0 22 13   98.16     LegendNANA
04:00 16.0 10.8 71 0.0 24 16   98.22     LegendNANA
05:00 14.7 10.5 76 0.0 25 11   98.27     LegendNANA
06:00 15.4 11.1 75 0.0 26 12   98.32     LegendNANA
07:00 17.9 11.6 67 0.0 26 11   98.35     LegendNANA
08:00 19.7 10.8 56 0.0 29 14   98.39     LegendNANA
09:00 21.2 10.9 52 0.0 28 12   98.44     LegendNANA
10:00 23.3 11.6 48 0.0 27 12   98.43 25   LegendNANA
11:00 24.7 7.9 34 0.0 31 18   98.46 25   LegendNANA
12:00 25.7 7.9 32 0.0 30 18   98.48 26   LegendNANA
13:00 26.0 5.5 27 0.0 30 24   98.48 25   LegendNANA
14:00 26.5 5.4 26 0.0 30 19   98.48 26   LegendNANA
15:00 25.6 3.7 24 0.0 29 22   98.50     LegendNANA
16:00 26.5 5.2 26 0.0 31 21   98.52 26   LegendNANA
17:00 26.1 4.9 26 0.0 29 26   98.53 25   LegendNANA
18:00 25.9 4.9 26 0.0 30 24   98.53 25   LegendNANA
19:00 25.3 4.8 27 0.0 29 22   98.53 25   LegendNANA
20:00 23.9 5.5 31 0.0 35 10   98.57     LegendNANA
21:00 19.8 6.1 41 0.0 36 7   98.64     LegendNANA
22:00 16.6 6.8 52 0.0 32 5   98.69     LegendNANA
23:00 12.5 8.1 75 0.0 28 1   98.71     LegendNANA

Notes on Data Quality.

Legend

  • E = Estimated
  • M = Missing
  • NA = Not Available*
  • [empty] = Indicates an unobserved value
Date modified: